Flag for Germany Weather past 2 weeks in Sankt Augustin, North Rhine-Westphalia, Germany

Now
48 °F

Broken clouds.


Feels Like: 42 °F
Forecast: 35 / 44 °F
Wind: 16 mph from Southwest

Location: Koeln / Bonn

Current Time: Mar 3, 2015 at 2:21:07 PM

Latest Report: Mar 3, 2015 at 1:50 PM


Visibility: N/A

Pressure: 30.01 "Hg

Humidity: 50%

Dew point: 30 °F

Location of Sankt AugustinLocation

Historic Weather in Sankt Augustin — Graph

°F

Sankt Augustin temperature yesterday

Maximum temperature yesterday: 48 °F (at 1:50 PM)
Minimum temperature yesterday: 36 °F (at 6:50 PM)
Average temperature yesterday: 42 °F

Past Weeks' High & Low Weather Summary

 TemperatureHumidityPressure
High54 °F (Mar 1, 1:20 PM)100% (Feb 17, 10:50 AM)30.77 "Hg (Feb 17, 10:50 AM)
Low28 °F (Feb 28, 4:20 AM)40% (Feb 28, 3:50 PM)29.39 "Hg (Feb 21, 4:20 AM)
Average39 °F79%29.96 "Hg
* Reported Feb 16 1:20 PM — Mar 3 1:20 PM, Sankt Augustin, Weather by CustomWeather, © 2015

Note: Actual official high and low records may vary slightly from our data, if they occured in-between our weather recording intervals... More about our weather records

Advertising

Sankt Augustin weather history for previous 24 hours

 ConditionsComfort  
Time TempWeatherWind HumidityBarometerVisibility
1:20 PM
Tue, Mar 3
48 °FBroken clouds.18 mph50%30.04 "HgN/A
12:50 PM46 °FBroken clouds.15 mph57%30.04 "HgN/A
12:20 PM45 °FBroken clouds.12 mph61%30.07 "HgN/A
11:50 AM45 °FBroken clouds.12 mph61%30.07 "HgN/A
11:20 AM45 °FBroken clouds.13 mph61%30.07 "HgN/A
10:50 AM43 °FBroken clouds.13 mph66%30.09 "HgN/A
10:20 AM45 °FSunny.12 mph61%30.09 "Hg10 mi
9:50 AM41 °FSunny.9 mph70%30.09 "Hg10 mi
9:20 AM39 °FBroken clouds.8 mph75%30.09 "HgN/A
8:50 AM39 °FBroken clouds.8 mph70%30.09 "HgN/A
8:20 AM36 °FScattered clouds.8 mph81%30.09 "HgN/A
7:50 AM34 °FSunny.9 mph87%30.09 "Hg10 mi
7:20 AM34 °FSunny.9 mph87%30.09 "Hg10 mi
6:50 AM34 °FPassing clouds.9 mph81%30.09 "HgN/A
6:20 AM36 °FPassing clouds.8 mph81%30.09 "HgN/A
5:50 AM36 °FPassing clouds.8 mph81%30.09 "HgN/A
5:20 AM34 °FPassing clouds.8 mph81%30.09 "HgN/A
4:50 AM36 °FPassing clouds.7 mph81%30.07 "HgN/A
4:20 AM36 °FPassing clouds.8 mph81%30.07 "HgN/A
3:50 AM36 °FClear.7 mph81%30.07 "Hg10 mi
3:20 AM36 °FPassing clouds.8 mph81%30.07 "HgN/A
2:50 AM36 °FClear.8 mph81%30.07 "Hg10 mi
2:20 AM37 °FClear.8 mph75%30.07 "Hg10 mi
1:50 AM37 °FClear.13 mph75%30.07 "Hg10 mi
1:20 AM37 °FClear.13 mph75%30.04 "Hg10 mi
12:50 AM37 °FClear.13 mph75%30.04 "Hg10 mi
12:20 AM37 °FPassing clouds.13 mph75%30.04 "HgN/A
11:50 PM
Mon, Mar 2
37 °FClear.15 mph75%30.01 "Hg10 mi
11:20 PM39 °FClear.15 mph70%30.01 "Hg10 mi
10:50 PM37 °FClear.12 mph75%29.98 "Hg10 mi
10:20 PM37 °FPassing clouds.10 mph75%29.98 "HgN/A
9:50 PM37 °FClear.9 mph75%29.95 "Hg10 mi
9:20 PM37 °FPassing clouds.12 mph75%29.95 "HgN/A
8:50 PM37 °FPassing clouds.13 mph75%29.92 "HgN/A
8:20 PM37 °FPassing clouds.15 mph81%29.92 "HgN/A
7:50 PM37 °FPassing clouds.9 mph81%29.89 "HgN/A
7:20 PM37 °FPassing clouds.9 mph81%29.89 "HgN/A
6:50 PM36 °FPassing clouds.8 mph87%29.86 "HgN/A
6:20 PM37 °FPassing clouds.10 mph87%29.83 "HgN/A
5:50 PM37 °FPassing clouds.16 mph87%29.83 "HgN/A
5:20 PM37 °FBroken clouds.14 mph87%29.80 "HgN/A
4:50 PM37 °FSprinkles. Broken clouds.21 mph87%29.77 "HgN/A
4:20 PM41 °FPartly sunny.15 mph81%29.74 "HgN/A
3:50 PM43 °FLight rain. More clouds than sun.24 mph71%29.74 "HgN/A
3:20 PM46 °FPartly sunny.14 mph50%29.71 "HgN/A
2:50 PM48 °FPartly sunny.14 mph46%29.71 "HgN/A
2:20 PM48 °FScattered clouds.15 mph46%29.71 "HgN/A
Weather by CustomWeather, © 2015

See weather overviewHow to use our weather pages